sat.trackr.live / text

‹ back to catalog

STARLINK-32852

NORAD 62824 · 2025-018U

PAYLOAD ACTIVE UNKNOWN

§ Identity

Operator
Country
US
Launch date
2025-01-24
Launch site
AFWTR
Launch vehicle
Mass (kg)
RCS (m²)

Purposes: comms

External: N2YO · Heavens-Above · Gunter

§ Orbital elements

Epoch: 2026-05-24T21:20:14.762400Z

Period
94.11 min
Inclination
53.1592°
Eccentricity
0.0001108
Mean motion
15.30195921 rev/d
Perigee alt
474.5 km
Apogee alt
476.0 km
Semi-major
6,853.4 km
B*
6.3726e-4
RAAN
315.7448°
Arg perigee
83.0668°
Mean anomaly
277.0459°
Rev number
7,484

§ Raw data

STARLINK-328521 62824U 25018U   26144.88905975  .00018560  00000+0  63726-3 0  99922 62824  53.1592 315.7448 0001108  83.0668 277.0459 15.30195921 74845

JSON: /api/v1/satellites/62824 · /tle

For live sub-satellite position, see the globe view (requires WebGL).

§ Visibility from observer

Set your observer location to see the next 7 days of passes ≥ 10°. The values pass through the URL so the page stays shareable.

No JS? Fill the form by hand. The geolocation button needs JavaScript.